ARIANE 5 R/B, 42952

Orbit data source: Space-Track

ARIANE 5 R/B, 42952 is space debris in HEO originally from a launch on Fri, 29 Sep 2017 UTC launched from the French Guiana (FRGUI). Debris objects in space refer to the collection of defunct objects orbiting the Earth. Examples of debris include non-operational satellites, rocket bodies, and fragments generated from explosions, collisions, or faulty payload assembly.

Loading next visibility...
ARIANE 5 R/B details
Identifier
42952, 2017-059C
Orbit
HEO
Last TLE update1 day ago
Origin
Flag of FRArianespace (FR)
ManufacturerArianeGroup
MissionSpacecraft
Bus & MotorESC-A, Unknown motor
Mass~5,000 kg wet, ~5,000 kg dry
Launch date (UTC)
2017-09-29 (7 years ago)
Launch vehicleUnknown
Launch site
French Guiana (FRGUI)
Object type
Payload
Rocket body
Debris
Shape & HBRCyl + 1 Nozzle, 7 m
Radar Cross Section41.627 m², Large (>1 m²)

Expand to show TLE details & history

TLE from 1 day ago
0 ARIANE 5 R/B
1 42952U 17059C   25043.44091727  .00002932  00000-0  11332-2 0  9990
2 42952   5.8624  93.6401 7154333 292.6226   9.5326  2.43293113 62930
Epoch: 2025-02-12T10:34Z
Definitive object data (Epoch: 2025-02-12T10:34:55.252Z)
Latitude0.00033°
Longitude152.25781°
Altitude2,593.405 km
Speed8.472 km/s
True Right ascension06h 14m 52s
True Declination0° 00' 01"
Sunlit
Object was in daylight at TLE epoch
Visualization TLE readout
Latitude-2.15692°
Longitude-6.83484°
Altitude5,328.819 km
Speed7.143 km/s
Apparent Right ascension20h 40m 04s
Apparent Declination-31° 03' 10"
Sunlit
Object is in daylight
Visualization observer readout
Local Sidereal Time18:02:44
Azimuth146.516° SSE
Elevation10.21°
Doppler factor1
Orbital elements
Apogee altitude33,689.215 km
Perigee altitude268.483 km
Semi-major axis23,356.986 km
Eccentricity0.7154333
Inclination5.8624°
RAAN93.6401°
Arg. of periapsis292.6226°
True anomaly66.81656°
Mean anomaly9.5326°
Eccentric anomaly30.07423°
Mean motion0.60802 °/min
BSTAR0.0011332
Orbital period592.09 mins
Loading maneuver chart data...
Loading historical data...
Loading historical data...
Loading historical data...
Loading historical data...
Loading historical data...
Loading historical data...
Loading historical data...
Other satellites on launch #59 in the year 2017 (2017-09-29 UTC)

ARIANE 5 R/B Visibility forecast

Observer location: undefined°, undefined

Span
Click to sort rows by Start time (UTC) header in descending order
Start Az.
Max El. time (UTC)
Max El. Az.
Max El.
End time (UTC)
End Az.
236 mins2025-02-14 06:21:32.938Z99.312° ESE2025-02-14 08:54:32.938Z110.69° ESE17.751°2025-02-14 10:17:32.938Z110.5° ESE
|